"startDT [UTC]","vpos","CH4 [ppm]","stdev(CH4) [ppm]","CO2 [ppm]","stdev(CO2) [ppm]","H2O_reported [%]","stdev(H2O_reported)","CavityPressure [torr]","CavityTemp [C]","OutletValve","CH4_dry [ppm]","CO2_dry [ppm]","DasTemp [C]","EtalonTemp [C]","WarmBoxTemp [C]","MPVPosition","T_ECpre [C]","T_EC1 [C]","T_EC2 [C]","p_inlet [hPa]","p_in [hPa]","p_out [hPa]","T_inlet [C]","RH_inlet [%]","dwpt_inlet [C]","T_vent [C]","RH_vent [%]","dwpt_vent [C]","flow_vent [l min-1]","flow_inlet [l min-1]","dwpt_sample [C]","T_room [C]"
2015-10-20 00:00:00,0.0,1.92196,0.00037,394.622,0.066,0.3589,0.0025,139.996,45.000,31663.87379,1.92880,396.345,34.189,45.069,45.000,0.00,0.09,-272.75,-272.81,-8,522,-941,21.3,10.7,-10.7,21.2,10.9,-10.5,5.73,2.11,-6.2,26.4
2015-10-20 00:01:00,0.0,1.92200,0.00040,394.638,0.100,0.3586,0.0015,139.999,45.000,31665.56570,1.92887,396.357,34.196,45.069,45.000,0.00,0.09,-272.74,-272.81,-8,523,-941,21.2,10.7,-10.8,21.2,10.9,-10.5,5.73,1.97,-6.2,26.4
2015-10-20 00:02:00,0.0,1.92183,0.00053,394.563,0.160,0.3574,0.0021,140.002,45.000,31667.25271,1.92865,396.276,34.195,45.069,45.000,0.00,0.09,-272.74,-272.80,-7,522,-941,21.2,10.7,-10.8,21.2,10.9,-10.5,5.73,1.79,-6.2,26.4
2015-10-20 00:03:00,0.0,1.92223,0.00027,394.526,0.128,0.3583,0.0014,139.999,45.000,31665.87302,1.92910,396.250,34.235,45.069,45.000,0.00,0.09,-272.76,-272.81,-7,522,-941,21.2,10.7,-10.8,21.2,10.9,-10.5,5.73,2.13,-6.3,26.4
2015-10-20 00:04:00,0.0,1.92219,0.00041,394.208,0.051,0.3576,0.0017,139.999,45.000,31664.45872,1.92900,395.922,34.248,45.069,45.000,0.00,0.09,-272.75,-272.82,-8,522,-941,21.3,10.6,-10.8,21.3,10.9,-10.5,5.73,1.93,-6.2,26.4
2015-10-20 00:05:00,0.0,1.92213,0.00043,394.154,0.031,0.3569,0.0018,140.000,45.000,31667.46223,1.92896,395.864,34.250,45.069,45.000,0.00,0.09,-272.74,-272.81,-8,523,-941,21.2,10.6,-10.8,21.3,10.9,-10.6,5.73,1.82,-6.2,26.4
2015-10-20 00:06:00,0.0,1.92266,0.00054,394.159,0.029,0.3570,0.0019,139.998,45.000,31666.65846,1.92943,395.868,34.238,45.069,45.000,0.00,0.09,-272.75,-272.81,-7,523,-941,21.3,10.7,-10.8,21.3,10.9,-10.5,5.73,2.14,-6.3,26.4
2015-10-20 00:07:00,0.0,1.92334,0.00040,394.198,0.027,0.3574,0.0021,140.000,45.000,31666.71418,1.93020,395.908,34.250,45.069,45.000,0.00,0.09,-272.75,-272.81,-8,522,-941,21.3,10.6,-10.8,21.3,10.9,-10.6,5.73,1.90,-6.2,26.4
2015-10-20 00:08:00,0.0,1.92402,0.00045,394.280,0.072,0.3577,0.0017,140.000,45.000,31666.31846,1.93085,395.991,34.249,45.069,45.000,0.00,0.09,-272.74,-272.80,-8,523,-941,21.2,10.7,-10.8,21.3,10.9,-10.5,5.73,1.83,-6.3,26.4
2015-10-20 00:09:00,0.0,1.92411,0.00038,394.292,0.038,0.3573,0.0015,139.999,45.000,31664.58011,1.93093,396.005,34.241,45.069,45.000,0.00,0.09,-272.75,-272.80,-7,523,-941,21.2,10.6,-10.8,21.3,10.9,-10.5,5.73,2.14,-6.2,26.4
2015-10-20 00:10:00,0.0,1.92443,0.00043,394.270,0.067,0.3569,0.0014,139.999,45.000,31665.73801,1.93125,395.980,34.250,45.069,45.000,0.00,0.09,-272.75,-272.81,-7,522,-941,21.2,10.6,-10.8,21.3,10.9,-10.6,5.73,1.88,-6.3,26.4
2015-10-20 00:11:00,0.0,1.92504,0.00030,394.229,0.042,0.3569,0.0021,140.001,45.000,31665.39984,1.93183,395.938,34.250,45.069,45.000,0.00,0.09,-272.75,-272.80,-8,522,-941,21.2,10.6,-10.9,21.3,10.8,-10.6,5.73,1.85,-6.3,26.4
2015-10-20 00:12:00,0.0,1.92596,0.00036,394.292,0.071,0.3564,0.0012,139.999,45.000,31664.14337,1.93278,395.995,34.251,45.069,45.000,0.00,0.09,-272.75,-272.81,-8,523,-941,21.2,10.6,-10.9,21.2,10.8,-10.6,5.73,2.14,-6.3,26.4
2015-10-20 00:13:00,0.0,1.92602,0.00031,394.386,0.054,0.3576,0.0017,140.001,45.000,31668.24711,1.93287,396.101,34.249,45.069,45.000,0.00,0.09,-272.75,-272.81,-7,523,-941,21.2,10.7,-10.8,21.2,10.9,-10.6,5.73,1.87,-6.2,26.4
2015-10-20 00:14:00,0.0,1.92655,0.00050,394.421,0.102,0.3577,0.0016,139.999,45.000,31666.92800,1.93336,396.130,34.249,45.069,45.000,0.00,0.09,-272.75,-272.81,-8,523,-941,21.2,10.7,-10.8,21.2,10.9,-10.5,5.73,1.85,-6.3,26.4
2015-10-20 00:15:00,0.0,1.92682,0.00044,394.635,0.079,0.3577,0.0024,139.999,45.000,31667.30228,1.93371,396.353,34.235,45.069,45.000,0.00,0.09,-272.74,-272.80,-9,523,-941,21.2,10.7,-10.8,21.2,10.9,-10.6,5.73,2.15,-6.3,26.4
2015-10-20 00:16:00,0.0,1.92661,0.00048,394.419,0.110,0.3580,0.0023,139.999,45.000,31666.96264,1.93343,396.135,34.198,45.069,45.000,0.00,0.09,-272.74,-272.81,-8,523,-941,21.2,10.7,-10.8,21.2,10.9,-10.5,5.73,1.87,-6.3,26.4
2015-10-20 00:17:00,0.0,1.92649,0.00051,394.272,0.045,0.3582,0.0013,140.000,45.000,31664.88526,1.93335,395.989,34.181,45.069,45.000,0.00,0.09,-272.76,-272.81,-7,523,-941,21.2,10.7,-10.8,21.2,10.9,-10.5,5.73,1.84,-6.3,26.4
2015-10-20 00:18:00,0.0,1.92690,0.00046,394.261,0.036,0.3585,0.0019,140.000,45.000,31663.53224,1.93378,395.980,34.156,45.069,45.000,0.00,0.09,-272.75,-272.80,-8,522,-941,21.2,10.7,-10.8,21.2,10.9,-10.5,5.73,2.14,-6.3,26.3
2015-10-20 00:19:00,0.0,1.92615,0.00050,394.218,0.034,0.3595,0.0016,139.999,45.000,31662.99274,1.93305,395.939,34.165,45.069,45.000,0.00,0.09,-272.74,-272.81,-8,522,-941,21.3,10.7,-10.7,21.2,10.9,-10.5,5.73,1.88,-6.3,26.4
2015-10-20 00:20:00,0.0,1.92608,0.00074,394.255,0.044,0.3591,0.0016,140.000,45.000,31664.78335,1.93290,395.973,34.187,45.069,45.000,0.00,0.09,-272.76,-272.81,-7,523,-941,21.2,10.7,-10.7,21.2,10.9,-10.5,5.73,1.86,-6.3,26.4
2015-10-20 00:21:00,0.0,1.92646,0.00051,394.283,0.043,0.3602,0.0020,140.001,45.000,31665.40083,1.93340,396.007,34.188,45.069,45.000,0.00,0.09,-272.75,-272.81,-7,522,-941,21.2,10.7,-10.7,21.2,10.9,-10.5,5.73,2.15,-6.3,26.4
2015-10-20 00:22:00,0.0,1.92622,0.00035,394.252,0.033,0.3611,0.0015,139.999,45.000,31663.26187,1.93313,395.982,34.190,45.069,45.001,0.00,0.09,-272.74,-272.80,-8,522,-941,21.2,10.8,-10.7,21.2,11.0,-10.4,5.73,1.85,-6.3,26.4
2015-10-20 00:23:00,0.0,1.92690,0.00030,394.282,0.046,0.3602,0.0014,140.001,45.000,31662.09042,1.93377,396.006,34.186,45.069,45.000,0.00,0.09,-272.75,-272.80,-8,522,-941,21.2,10.8,-10.7,21.2,11.0,-10.4,5.73,1.87,-6.3,26.4
2015-10-20 00:24:00,0.0,1.92676,0.00036,394.286,0.036,0.3606,0.0015,139.998,45.000,31661.17519,1.93368,396.016,34.184,45.069,45.000,0.00,0.09,-272.76,-272.80,-7,522,-941,21.2,10.8,-10.7,21.2,11.0,-10.4,5.73,2.15,-6.3,26.4
2015-10-20 00:25:00,0.0,1.92667,0.00039,394.292,0.049,0.3599,0.0018,140.002,45.000,31663.89981,1.93356,396.016,34.190,45.069,45.000,0.00,0.09,-272.74,-272.80,-8,522,-941,21.2,10.8,-10.7,21.2,11.0,-10.5,5.73,1.83,-6.3,26.4
2015-10-20 00:26:00,0.0,1.92627,0.00034,394.280,0.032,0.3611,0.0018,139.997,45.000,31663.06752,1.93321,396.009,34.214,45.069,45.000,0.00,0.09,-272.75,-272.81,-8,522,-941,21.2,10.8,-10.7,21.2,11.0,-10.5,5.73,1.91,-6.3,26.3
2015-10-20 00:27:00,0.0,1.92606,0.00068,394.251,0.052,0.3601,0.0018,140.001,45.000,31663.27036,1.93292,395.976,34.231,45.069,45.000,0.00,0.09,-272.75,-272.81,-7,522,-941,21.2,10.8,-10.7,21.2,11.0,-10.5,5.73,2.14,-6.3,26.4
2015-10-20 00:28:00,0.0,1.92662,0.00048,394.268,0.043,0.3614,0.0017,140.001,45.000,31663.20422,1.93356,396.000,34.222,45.069,45.000,0.00,0.09,-272.74,-272.81,-7,522,-941,21.2,10.8,-10.6,21.2,11.0,-10.4,5.73,1.79,-6.3,26.4
2015-10-20 00:29:00,0.0,1.92653,0.00029,394.270,0.050,0.3626,0.0022,139.999,45.000,31661.61883,1.93346,396.006,34.198,45.069,45.000,0.00,0.09,-272.74,-272.80,-8,522,-941,21.2,10.8,-10.6,21.2,11.0,-10.4,5.73,1.96,-6.3,26.4
2015-10-20 00:30:00,0.0,1.92647,0.00032,394.312,0.034,0.3635,0.0018,140.001,45.000,31660.78983,1.93344,396.054,34.187,45.069,45.000,0.00,0.09,-272.75,-272.81,-8,522,-941,21.2,10.9,-10.6,21.2,11.1,-10.4,5.73,2.12,-6.3,26.4
2015-10-20 00:31:00,0.0,1.92624,0.00047,394.362,0.048,0.3634,0.0017,139.998,45.000,31660.86253,1.93320,396.101,34.195,45.069,45.000,0.00,0.30,-271.00,-271.92,-7,522,-941,21.2,10.8,-10.6,21.2,11.1,-10.4,5.43,1.81,-12.3,26.4
2015-10-20 00:32:00,0.0,1.92632,0.00057,394.413,0.036,0.3629,0.0014,139.999,45.000,31662.59753,1.93329,396.153,34.207,45.069,45.000,0.00,0.09,-272.75,-272.80,-8,522,-941,21.2,10.9,-10.6,21.2,11.1,-10.4,5.73,2.00,-6.3,26.4
2015-10-20 00:33:00,0.0,1.92623,0.00053,394.394,0.048,0.3660,0.0014,140.000,45.000,31664.04114,1.93318,396.149,34.232,45.069,45.000,0.00,0.09,-272.75,-272.81,-8,522,-941,21.2,10.9,-10.6,21.2,11.1,-10.3,5.73,2.08,-6.3,26.4
2015-10-20 00:34:00,0.0,1.92582,0.00055,394.330,0.059,0.3637,0.0014,139.998,45.000,31664.45614,1.93283,396.071,34.248,45.069,45.000,0.00,0.09,-272.75,-272.81,-7,522,-941,21.2,10.9,-10.6,21.2,11.1,-10.3,5.73,1.76,-6.3,26.4
2015-10-20 00:35:00,0.0,1.92639,0.00027,394.368,0.037,0.3640,0.0015,139.999,45.000,31663.35548,1.93335,396.113,34.246,45.069,45.000,0.00,0.09,-272.75,-272.80,-7,522,-941,21.1,10.9,-10.6,21.2,11.1,-10.3,5.73,2.05,-6.3,26.4
2015-10-20 00:36:00,0.0,1.92617,0.00038,394.333,0.030,0.3645,0.0022,140.000,45.000,31662.37801,1.93316,396.080,34.225,45.069,45.000,0.00,0.09,-272.75,-272.80,-8,522,-941,21.1,11.0,-10.5,21.2,11.1,-10.3,5.73,2.05,-6.3,26.3
2015-10-20 00:37:00,0.0,1.92637,0.00045,394.349,0.047,0.3660,0.0014,139.998,45.000,31660.16985,1.93340,396.103,34.190,45.069,45.000,0.00,0.09,-272.75,-272.81,-8,522,-941,21.1,11.0,-10.5,21.2,11.2,-10.3,5.73,1.76,-6.3,26.4
2015-10-20 00:38:00,0.0,1.92584,0.00050,394.313,0.037,0.3661,0.0018,139.999,45.000,31659.56230,1.93287,396.068,34.199,45.069,45.000,0.00,0.09,-272.75,-272.80,-7,522,-941,21.1,11.0,-10.5,21.2,11.2,-10.2,5.73,2.07,-6.3,26.4
2015-10-20 00:39:00,0.0,1.92527,0.00050,394.292,0.039,0.3673,0.0017,140.002,45.000,31664.23623,1.93226,396.051,34.223,45.069,45.000,0.00,0.09,-272.74,-272.81,-8,522,-941,21.1,11.1,-10.4,21.1,11.2,-10.3,5.73,2.02,-6.3,26.3
2015-10-20 00:40:00,0.0,1.92569,0.00045,394.304,0.036,0.3676,0.0019,139.998,45.000,31662.13715,1.93270,396.065,34.201,45.069,45.000,0.00,0.09,-272.75,-272.81,-8,522,-941,21.1,11.1,-10.4,21.2,11.2,-10.2,5.73,1.77,-6.3,26.3
2015-10-20 00:41:00,0.0,1.92619,0.00039,394.336,0.036,0.3668,0.0019,140.002,45.000,31662.00992,1.93323,396.094,34.190,45.069,45.000,0.00,0.09,-272.75,-272.80,-7,522,-941,21.1,11.0,-10.4,21.1,11.2,-10.3,5.73,2.08,-6.3,26.4
2015-10-20 00:42:00,0.0,1.92626,0.00065,394.327,0.052,0.3671,0.0024,139.997,45.000,31661.10795,1.93328,396.086,34.189,45.069,45.000,0.00,0.09,-272.74,-272.81,-7,522,-941,21.1,11.1,-10.4,21.2,11.2,-10.2,5.73,2.00,-6.3,26.3
2015-10-20 00:43:00,0.0,1.92660,0.00045,394.330,0.039,0.3656,0.0020,140.001,45.000,31661.47781,1.93362,396.081,34.232,45.069,45.000,0.00,0.09,-272.75,-272.81,-8,522,-941,21.1,11.0,-10.5,21.1,11.2,-10.3,5.73,1.78,-6.4,26.3
2015-10-20 00:44:00,0.0,1.92636,0.00041,394.393,0.038,0.3677,0.0017,140.000,45.000,31662.53480,1.93338,396.154,34.234,45.069,45.000,0.00,0.09,-272.76,-272.81,-8,522,-941,21.1,11.1,-10.4,21.1,11.2,-10.3,5.73,2.12,-6.3,26.3
2015-10-20 00:45:00,0.0,1.92631,0.00062,394.420,0.059,0.3653,0.0015,139.999,45.000,31662.71853,1.93332,396.171,34.220,45.069,45.000,0.00,0.09,-272.74,-272.81,-7,522,-941,21.1,11.0,-10.5,21.1,11.2,-10.3,5.73,1.96,-6.3,26.4
2015-10-20 00:46:00,0.0,1.92641,0.00039,394.510,0.113,0.3669,0.0026,139.998,45.000,31661.07221,1.93343,396.270,34.186,45.069,45.000,0.00,0.09,-272.74,-272.81,-8,522,-941,21.1,11.0,-10.4,21.1,11.2,-10.3,5.73,1.79,-6.4,26.4
2015-10-20 00:47:00,0.0,1.92627,0.00045,394.343,0.054,0.3665,0.0014,139.997,45.000,31661.01138,1.93330,396.102,34.182,45.069,45.000,0.00,0.09,-272.76,-272.81,-9,522,-941,21.1,11.0,-10.5,21.1,11.2,-10.3,5.73,2.11,-6.3,26.4
2015-10-20 00:48:00,0.0,1.92577,0.00061,394.294,0.045,0.3662,0.0013,139.999,45.000,31660.85358,1.93280,396.047,34.150,45.069,45.000,0.00,0.09,-272.74,-272.81,-7,522,-941,21.1,11.0,-10.5,21.2,11.2,-10.2,5.73,1.96,-6.4,26.3
2015-10-20 00:49:00,0.0,1.92589,0.00033,394.306,0.042,0.3670,0.0012,139.997,45.000,31658.78723,1.93293,396.063,34.178,45.069,45.000,0.00,0.09,-272.75,-272.80,-7,522,-941,21.1,11.0,-10.5,21.2,11.2,-10.2,5.73,1.79,-6.3,26.3
2015-10-20 00:50:00,0.0,1.92594,0.00039,394.378,0.038,0.3682,0.0017,139.997,45.000,31659.71813,1.93299,396.143,34.189,45.069,45.000,0.00,0.09,-272.75,-272.80,-8,522,-941,21.1,11.1,-10.4,21.2,11.2,-10.2,5.73,2.14,-6.3,26.3
2015-10-20 00:51:00,0.0,1.92678,0.00051,394.374,0.036,0.3684,0.0017,139.997,45.000,31659.68184,1.93379,396.140,34.208,45.069,45.000,0.00,0.09,-272.75,-272.82,-8,522,-941,21.1,11.1,-10.4,21.1,11.2,-10.2,5.73,1.90,-6.4,26.4
2015-10-20 00:52:00,0.0,1.92703,0.00034,394.321,0.036,0.3671,0.0014,139.999,45.000,31659.80189,1.93408,396.079,34.247,45.069,45.000,0.00,0.09,-272.75,-272.80,-7,522,-941,21.1,11.1,-10.4,21.1,11.2,-10.2,5.73,1.82,-6.4,26.4
2015-10-20 00:53:00,0.0,1.92663,0.00066,394.322,0.046,0.3683,0.0017,140.002,45.000,31661.97755,1.93372,396.089,34.208,45.069,45.000,0.00,0.09,-272.75,-272.80,-8,522,-941,21.1,11.1,-10.4,21.1,11.3,-10.2,5.73,2.14,-6.4,26.3
2015-10-20 00:54:00,0.0,1.92633,0.00074,394.264,0.033,0.3677,0.0023,140.001,45.000,31661.83749,1.93334,396.026,34.189,45.069,45.000,0.00,0.09,-272.74,-272.81,-8,522,-941,21.1,11.1,-10.4,21.1,11.3,-10.2,5.73,1.90,-6.4,26.3
2015-10-20 00:55:00,0.0,1.92659,0.00043,394.269,0.033,0.3679,0.0016,139.997,45.000,31660.82203,1.93367,396.031,34.200,45.069,45.000,0.00,0.09,-272.74,-272.81,-7,522,-941,21.1,11.1,-10.4,21.2,11.3,-10.2,5.73,1.83,-6.4,26.3
2015-10-20 00:56:00,0.0,1.92556,0.00056,394.224,0.040,0.3704,0.0017,139.999,45.000,31661.76898,1.93269,396.001,34.244,45.069,45.000,0.00,0.09,-272.75,-272.80,-7,522,-941,21.1,11.2,-10.3,21.1,11.3,-10.1,5.73,2.15,-6.4,26.3
2015-10-20 00:57:00,0.0,1.92558,0.00032,394.236,0.040,0.3708,0.0018,140.000,45.000,31659.87050,1.93266,396.011,34.247,45.069,45.000,0.00,0.09,-272.75,-272.81,-8,522,-941,21.1,11.2,-10.3,21.1,11.4,-10.1,5.73,1.86,-6.4,26.3
2015-10-20 00:58:00,0.0,1.92603,0.00044,394.291,0.046,0.3706,0.0017,140.001,45.000,31659.58380,1.93310,396.065,34.246,45.069,45.000,0.00,0.09,-272.75,-272.81,-8,522,-941,21.1,11.2,-10.3,21.1,11.4,-10.1,5.73,1.86,-6.4,26.3
2015-10-20 00:59:00,0.0,1.92530,0.00068,394.250,0.052,0.3695,0.0012,140.001,45.000,31659.96454,1.93245,396.022,34.233,45.069,45.000,0.00,0.09,-272.74,-272.81,-7,522,-941,21.1,11.2,-10.3,21.1,11.4,-10.1,5.73,2.14,-6.4,26.3
2015-10-20 01:00:00,0.0,1.92461,0.00048,394.203,0.033,0.3727,0.0021,140.001,45.000,31658.30791,1.93170,395.988,34.226,45.069,45.000,0.00,0.09,-272.75,-272.81,-7,522,-941,21.1,11.3,-10.2,21.1,11.4,-10.0,5.73,1.86,-6.4,26.3
2015-10-20 01:01:00,0.0,1.92614,0.00046,394.253,0.037,0.3714,0.0023,140.001,45.000,31657.87339,1.93322,396.032,34.243,45.069,45.000,0.00,0.09,-272.75,-272.81,-8,522,-941,21.1,11.2,-10.2,21.1,11.4,-10.0,5.73,1.86,-6.4,26.3
2015-10-20 01:02:00,0.0,1.92638,0.00064,394.274,0.047,0.3699,0.0022,140.002,45.000,31657.38697,1.93346,396.046,34.249,45.069,45.000,0.00,0.09,-272.75,-272.80,-7,522,-941,21.1,11.2,-10.3,21.1,11.4,-10.1,5.73,2.15,-6.4,26.3
2015-10-20 01:03:00,0.0,1.92735,0.00037,394.411,0.026,0.3697,0.0019,139.999,45.000,31657.49775,1.93441,396.182,34.251,45.069,45.000,0.00,0.09,-272.74,-272.80,-7,522,-941,21.1,11.2,-10.3,21.1,11.3,-10.1,5.73,1.82,-6.4,26.3
2015-10-20 01:04:00,0.0,1.92605,0.00059,394.298,0.042,0.3712,0.0017,139.997,45.000,31658.06703,1.93324,396.080,34.250,45.069,45.000,0.00,0.09,-272.76,-272.81,-8,522,-941,21.1,11.2,-10.3,21.1,11.4,-10.1,5.73,1.90,-6.4,26.3
2015-10-20 01:05:00,0.0,1.92486,0.00100,394.232,0.033,0.3720,0.0018,140.000,45.000,31656.84992,1.93204,396.014,34.250,45.069,45.000,0.00,0.09,-272.75,-272.80,-8,522,-941,21.1,11.3,-10.2,21.1,11.4,-10.0,5.73,2.14,-6.4,26.3
2015-10-20 01:06:00,0.0,1.92435,0.00096,394.207,0.046,0.3738,0.0018,140.001,45.000,31655.77949,1.93142,395.997,34.249,45.069,45.000,0.00,0.09,-272.74,-272.81,-7,522,-941,21.1,11.3,-10.2,21.1,11.5,-10.0,5.73,1.83,-6.4,26.3
2015-10-20 01:07:00,0.0,1.92558,0.00068,394.272,0.041,0.3719,0.0018,140.000,45.000,31654.73327,1.93272,396.055,34.250,45.069,45.000,0.00,0.09,-272.75,-272.81,-7,522,-940,21.1,11.2,-10.3,21.1,11.4,-10.0,5.73,1.91,-6.4,26.3
2015-10-20 01:08:00,0.0,1.92596,0.00048,394.306,0.033,0.3723,0.0017,140.001,45.000,31654.91423,1.93306,396.089,34.250,45.069,45.000,0.00,0.09,-272.75,-272.81,-8,522,-941,21.1,11.2,-10.2,21.1,11.4,-10.0,5.73,2.13,-6.4,26.3
2015-10-20 01:09:00,0.0,1.92571,0.00059,394.285,0.051,0.3731,0.0015,139.998,45.000,31653.04278,1.93287,396.074,34.253,45.069,45.000,0.00,0.09,-272.74,-272.81,-8,522,-941,21.1,11.3,-10.2,21.1,11.4,-10.0,5.73,1.78,-6.4,26.3
2015-10-20 01:10:00,0.0,1.92542,0.00050,394.260,0.036,0.3738,0.0012,139.999,45.000,31655.41518,1.93259,396.051,34.256,45.069,45.000,0.00,0.09,-272.75,-272.80,-7,522,-941,21.1,11.3,-10.2,21.1,11.5,-10.0,5.73,1.99,-6.4,26.3
2015-10-20 01:11:00,0.0,1.92499,0.00041,394.217,0.035,0.3754,0.0018,140.002,45.000,31655.45636,1.93215,396.017,34.255,45.069,45.001,0.00,0.09,-272.75,-272.81,-8,522,-941,21.1,11.3,-10.1,21.1,11.5,-9.9,5.73,2.09,-6.4,26.3
2015-10-20 01:12:00,0.0,1.92458,0.00052,394.224,0.045,0.3758,0.0019,140.002,45.000,31657.79180,1.93181,396.025,34.269,45.069,45.001,0.00,0.09,-272.75,-272.81,-8,522,-941,21.0,11.4,-10.2,21.1,11.5,-9.9,5.73,1.76,-6.4,26.3
2015-10-20 01:13:00,0.0,1.92457,0.00055,394.211,0.045,0.3760,0.0013,139.999,45.000,31655.70953,1.93175,396.011,34.247,45.069,45.001,0.00,0.09,-272.75,-272.80,-7,522,-941,21.1,11.4,-10.1,21.1,11.6,-9.9,5.73,2.04,-6.4,26.3
2015-10-20 01:14:00,0.0,1.92497,0.00034,394.182,0.035,0.3754,0.0015,140.000,45.000,31654.18242,1.93215,395.983,34.211,45.069,45.000,0.00,0.09,-272.75,-272.81,-7,522,-941,21.1,11.3,-10.1,21.1,11.6,-9.9,5.73,2.06,-6.4,26.3
2015-10-20 01:15:00,0.0,1.92452,0.00071,394.129,0.039,0.3740,0.0017,139.998,45.000,31654.15337,1.93174,395.921,34.187,45.069,45.000,0.00,0.09,-272.74,-272.80,-8,522,-940,21.1,11.3,-10.2,21.1,11.5,-9.9,5.73,1.76,-6.4,26.3
2015-10-20 01:16:00,0.0,1.92466,0.00071,394.132,0.037,0.3744,0.0019,140.001,45.000,31653.03490,1.93178,395.926,34.188,45.069,45.000,0.00,0.09,-272.75,-272.80,-7,522,-940,21.1,11.3,-10.2,21.1,11.5,-10.0,5.73,2.07,-6.4,26.3
2015-10-20 01:17:00,0.0,1.92631,0.00059,394.190,0.027,0.3734,0.0017,140.001,45.000,31653.33995,1.93345,395.979,34.190,45.069,45.000,0.00,0.09,-272.75,-272.81,-7,522,-940,21.1,11.3,-10.2,21.2,11.4,-10.0,5.73,2.00,-6.4,26.3
2015-10-20 01:18:00,0.0,1.92640,0.00062,394.192,0.042,0.3732,0.0019,140.001,45.000,31654.39067,1.93356,395.981,34.190,45.069,45.000,0.00,0.09,-272.75,-272.81,-8,522,-940,21.1,11.3,-10.2,21.1,11.4,-10.0,5.73,1.78,-6.4,26.3
2015-10-20 01:19:00,0.0,1.92498,0.00075,394.147,0.038,0.3746,0.0012,140.000,45.000,31654.20341,1.93214,395.941,34.188,45.069,45.000,0.00,0.09,-272.75,-272.80,-8,522,-941,21.1,11.3,-10.2,21.1,11.5,-10.0,5.73,2.11,-6.4,26.3
2015-10-20 01:20:00,0.0,1.92607,0.00046,394.200,0.038,0.3747,0.0018,139.999,45.000,31650.94888,1.93322,395.995,34.187,45.069,45.000,0.00,0.09,-272.75,-272.81,-7,522,-940,21.1,11.3,-10.2,21.1,11.5,-9.9,5.73,1.97,-6.4,26.3
2015-10-20 01:21:00,0.0,1.92636,0.00044,394.217,0.032,0.3738,0.0019,140.004,45.000,31652.06230,1.93352,396.008,34.186,45.069,45.000,0.00,0.09,-272.75,-272.81,-7,522,-940,21.1,11.3,-10.2,21.1,11.5,-9.9,5.73,1.78,-6.4,26.3
2015-10-20 01:22:00,0.0,1.92557,0.00063,394.214,0.051,0.3748,0.0020,139.999,45.000,31649.41129,1.93281,396.010,34.184,45.069,45.000,0.00,0.09,-272.75,-272.80,-8,522,-940,21.1,11.3,-10.1,21.1,11.5,-9.9,5.73,2.13,-6.4,26.3
2015-10-20 01:23:00,0.0,1.92574,0.00048,394.215,0.041,0.3755,0.0017,140.000,45.000,31649.41498,1.93288,396.013,34.181,45.069,45.000,0.00,0.09,-272.74,-272.81,-8,522,-940,21.1,11.3,-10.1,21.1,11.5,-9.9,5.73,1.95,-6.4,26.4
2015-10-20 01:24:00,0.0,1.92562,0.00039,394.205,0.037,0.3752,0.0017,140.000,45.000,31649.52038,1.93285,396.004,34.162,45.069,45.000,0.00,0.09,-272.75,-272.81,-7,522,-940,21.1,11.3,-10.1,21.1,11.5,-9.9,5.73,1.79,-6.4,26.3
2015-10-20 01:25:00,0.0,1.92547,0.00052,394.199,0.030,0.3755,0.0016,139.997,45.000,31648.94922,1.93265,395.998,34.187,45.069,45.000,0.00,0.09,-272.76,-272.81,-8,522,-940,21.1,11.3,-10.1,21.1,11.5,-9.9,5.73,2.13,-6.4,26.3
2015-10-20 01:26:00,0.0,1.92547,0.00045,394.185,0.043,0.3754,0.0020,140.002,45.000,31651.98030,1.93268,395.986,34.188,45.069,45.000,0.00,0.09,-272.74,-272.81,-8,522,-940,21.1,11.3,-10.1,21.1,11.5,-9.9,5.73,1.91,-6.4,26.3
2015-10-20 01:27:00,0.0,1.92557,0.00056,394.209,0.031,0.3749,0.0018,139.997,45.000,31649.72755,1.93273,396.005,34.201,45.069,45.000,0.00,0.09,-272.75,-272.81,-7,522,-940,21.1,11.3,-10.1,21.1,11.5,-9.9,5.73,1.83,-6.4,26.3
2015-10-20 01:28:00,0.0,1.92535,0.00046,394.216,0.037,0.3746,0.0015,139.998,45.000,31651.10901,1.93251,396.010,34.229,45.069,45.000,0.00,0.09,-272.76,-272.81,-7,522,-940,21.1,11.3,-10.1,21.1,11.5,-9.9,5.73,2.15,-6.4,26.3
2015-10-20 01:29:00,0.0,1.92542,0.00034,394.188,0.028,0.3754,0.0017,139.995,45.000,31650.30071,1.93264,395.988,34.240,45.069,45.000,0.00,0.09,-272.74,-272.80,-9,522,-940,21.1,11.4,-10.1,21.1,11.5,-9.9,5.73,1.84,-6.4,26.3
2015-10-20 01:30:00,0.0,1.92534,0.00033,394.224,0.034,0.3745,0.0017,140.000,45.000,31650.80925,1.93252,396.017,34.250,45.069,45.000,0.00,0.09,-272.75,-272.80,-7,522,-940,21.1,11.3,-10.1,21.1,11.5,-9.9,5.73,1.89,-6.4,26.3
2015-10-20 01:31:00,0.0,1.92510,0.00039,394.202,0.043,0.3755,0.0016,139.999,45.000,31652.24248,1.93230,396.003,34.251,45.069,45.000,0.00,0.09,-272.76,-272.81,-7,522,-940,21.1,11.4,-10.2,21.1,11.5,-9.9,5.73,2.14,-6.4,26.3
2015-10-20 01:32:00,0.0,1.92423,0.00052,394.182,0.042,0.3738,0.0019,139.999,45.000,31653.30090,1.93140,395.971,34.278,45.069,45.000,0.00,0.09,-272.75,-272.80,-8,522,-940,21.1,11.3,-10.2,21.1,11.5,-9.9,5.73,1.81,-6.4,26.3
2015-10-20 01:33:00,0.0,1.92461,0.00043,394.224,0.037,0.3740,0.0018,139.999,45.000,31652.56779,1.93175,396.017,34.265,45.069,45.000,0.00,0.09,-272.75,-272.80,-8,522,-940,21.1,11.3,-10.2,21.1,11.5,-10.0,5.73,1.92,-6.4,26.3
2015-10-20 01:34:00,0.0,1.92477,0.00030,394.224,0.029,0.3726,0.0019,140.000,45.000,31651.84460,1.93189,396.009,34.249,45.069,45.000,0.00,0.09,-272.75,-272.81,-7,522,-940,21.1,11.3,-10.2,21.1,11.5,-10.0,5.73,2.13,-6.4,26.3
2015-10-20 01:35:00,0.0,1.92491,0.00023,394.263,0.031,0.3731,0.0015,140.002,45.000,31652.15028,1.93205,396.049,34.238,45.069,45.000,0.00,0.09,-272.74,-272.82,-7,522,-940,21.1,11.3,-10.3,21.1,11.5,-10.0,5.73,1.79,-6.4,26.3
2015-10-20 01:36:00,0.0,1.92491,0.00029,394.281,0.034,0.3739,0.0013,140.000,45.000,31650.98305,1.93208,396.073,34.211,45.069,45.000,0.00,0.09,-272.74,-272.80,-8,522,-940,21.1,11.3,-10.2,21.1,11.5,-10.0,5.73,1.96,-6.4,26.3
2015-10-20 01:37:00,0.0,1.92394,0.00054,394.213,0.042,0.3739,0.0026,140.000,45.000,31650.57241,1.93114,396.007,34.210,45.069,45.000,0.00,0.09,-272.74,-272.80,-8,522,-940,21.0,11.3,-10.2,21.1,11.5,-9.9,5.73,2.12,-6.4,26.3
2015-10-20 01:38:00,0.0,1.92305,0.00041,394.199,0.041,0.3736,0.0016,139.996,45.000,31647.31370,1.93018,395.988,34.201,45.069,45.000,0.00,0.09,-272.75,-272.81,-7,522,-940,21.1,11.3,-10.2,21.1,11.5,-10.0,5.73,1.78,-6.4,26.3
2015-10-20 01:39:00,0.0,1.92349,0.00052,394.228,0.039,0.3752,0.0019,139.999,45.000,31645.01555,1.93066,396.026,34.202,45.069,45.000,0.00,0.09,-272.75,-272.80,-8,522,-940,21.1,11.3,-10.2,21.1,11.5,-9.9,5.73,1.98,-6.4,26.3
2015-10-20 01:40:00,0.0,1.92275,0.00066,394.174,0.061,0.3745,0.0020,139.999,45.000,31648.59436,1.92994,395.970,34.203,45.069,45.000,0.00,0.09,-272.74,-272.81,-8,522,-940,21.0,11.4,-10.2,21.1,11.5,-9.9,5.73,2.10,-6.4,26.3
2015-10-20 01:41:00,0.0,1.92280,0.00035,394.161,0.030,0.3760,0.0022,139.999,45.000,31648.40000,1.92999,395.963,34.190,45.069,45.000,0.00,0.09,-272.75,-272.81,-7,522,-940,21.0,11.4,-10.1,21.1,11.6,-9.9,5.73,1.76,-6.4,26.3
2015-10-20 01:42:00,0.0,1.92315,0.00038,394.174,0.030,0.3770,0.0016,140.002,45.000,31649.63990,1.93036,395.979,34.187,45.069,45.000,0.00,0.09,-272.76,-272.81,-7,522,-940,21.0,11.4,-10.1,21.1,11.6,-9.9,5.73,2.04,-6.4,26.2
2015-10-20 01:43:00,0.0,1.92268,0.00049,394.187,0.035,0.3770,0.0015,139.997,45.000,31648.50111,1.92990,395.992,34.188,45.069,45.000,0.00,0.09,-272.74,-272.80,-8,522,-940,21.0,11.4,-10.1,21.1,11.6,-9.9,5.73,2.05,-6.4,26.3
2015-10-20 01:44:00,0.0,1.92256,0.00057,394.208,0.035,0.3778,0.0021,140.001,45.000,31649.58288,1.92979,396.021,34.194,45.069,45.000,0.00,0.09,-272.75,-272.80,-7,522,-940,21.1,11.4,-10.0,21.1,11.6,-9.8,5.73,1.76,-6.4,26.3